Location: Ste-F�licit�
(48.8999°N, 67.3360°W)
Time: 05:51:28
(UTC-04:00)

CAS-4A - Visible Passes

Search period start: 26 October 2020 00:00
Search period end: 04 November 2020 23:00
Orbit: 530 x 542 km, 43.0° (Epoch: 25 October)

Date Brightness Start Highest point End Pass type
(mag) Time Alt. Az. Time Alt. Az. Time Alt. Az.
26 Oct ? 04:11:31 19° SE 04:11:31 19° SE 04:13:11 10° ESE visible
26 Oct ? 05:46:52 17° WSW 05:49:27 36° S 05:53:11 10° ESE visible
27 Oct ? 04:01:39 16° ESE 04:01:39 16° ESE 04:02:46 10° ESE visible
27 Oct ? 05:36:59 23° SW 05:38:56 36° S 05:42:40 10° ESE visible
28 Oct ? 03:51:46 13° ESE 03:51:46 13° ESE 03:52:19 10° ESE visible
28 Oct ? 05:27:06 28° SW 05:28:24 35° S 05:32:08 10° ESE visible
29 Oct ? 05:17:13 32° SSW 05:17:52 34° S 05:21:35 10° ESE visible
30 Oct ? 05:07:20 32° S 05:07:20 32° S 05:11:00 10° SE visible
31 Oct ? 04:57:30 28° S 04:57:30 28° S 05:00:23 10° SE visible
31 Oct ? 06:34:07 10° WSW 06:36:10 14° SSW 06:38:12 10° S visible
01 Nov ? 03:47:42 22° SSE 03:47:42 22° SSE 03:49:45 10° SE visible
01 Nov ? 05:24:15 10° SW 05:25:33 11° SSW 05:26:51 10° SSW visible
02 Nov ? 03:37:56 16° SSE 03:37:56 16° SSE 03:39:05 10° SE visible
03 Nov ? 03:28:15 11° SSE 03:28:15 11° SSE 03:28:22 10° SSE visible
